Location: Garshuizen
(53.3675°N, 6.7248°E)
Time: 08:35:41
(UTC+00:00)

Cosmos 1452 Rocket - Pass Details

Date: 15 May 2026
Orbit: 763 x 770 km, 74.1° (Epoch: 6 June)

Event Time Altitude Azimuth Distance (km) Brightness Sun altitude
Rises 20:04:04 0° 217° (SW) 3,218 6.7 -5.2°
Reaches altitude 10° 20:06:28 10° 221° (SW) 2,296 6.0 -5.5°
Maximum altitude 20:11:37 59° 301° (WNW) 885 4.3 -6.0°
Drops below altitude 10° 20:16:48 10° 21° (NNE) 2,313 6.3 -6.6°
Sets 20:19:14 0° 26° (NNE) 3,244 7.0 -6.8°
